Theta_e
315 316 316 315 314 312 312 312 312 312 312 311 311 311 312 315 316 317 317 316 315 315 315 315 315 315 322 328 330 329 326 326 328 336 337 338 340 343 344 344 343 345 348 350 351 351 352
314 315 315 315 314 314 312 311 311 312 311 311 310 311 311 315 316 317 317 317 316 315 315 315 314 315 330 326 326 327 327 327 329 333 336 337 338 339 341 342 344 345 348 350 351 352 353
314 314 311 311 314 314 313 311 311 310 310 310 310 310 311 315 316 317 318 317 316 314 315 315 314 319 326 325 324 327 327 328 330 330 335 335 335 339 341 342 343 345 348 350 350 351 353
316 312 311 310 309 310 310 309 309 309 308 309 309 310 312 315 316 317 318 317 315 314 315 314 314 326 326 323 323 324 327 329 330 331 333 332 335 338 341 344 343 346 347 360 350 351 349
318 317 314 310 308 308 309 309 308 308 308 309 309 310 311 314 316 317 319 315 314 314 314 314 323 327 326 322 322 326 328 331 334 333 335 333 336 341 342 343 346 346 356 351 350 349 350
319 318 318 316 313 309 307 307 308 307 307 307 308 308 309 311 315 318 317 314 316 315 317 322 324 326 325 323 324 326 329 330 332 335 336 339 339 342 342 345 353 351 350 347 346 351 351
319 318 317 317 316 316 313 309 306 306 307 306 306 306 307 310 313 318 316 322 325 326 325 324 325 324 323 323 323 324 329 330 333 335 339 341 341 341 344 345 346 346 347 344 343 344 346
318 319 318 318 317 316 316 314 310 307 306 307 307 306 307 309 314 318 314 325 325 325 326 325 323 324 323 322 324 325 329 333 335 338 339 341 341 341 344 342 341 341 341 344 345 341 343
318 318 319 319 319 318 317 316 315 311 307 306 306 307 308 310 316 315 322 323 324 325 325 325 324 323 323 323 323 325 328 333 337 339 341 342 338 342 343 341 341 341 344 345 345 343 340
321 320 319 319 319 320 319 317 316 316 312 306 306 307 308 310 319 324 323 322 322 325 328 325 323 323 324 324 323 325 327 332 336 337 341 339 339 342 341 341 340 342 342 342 341 342 355
321 321 321 320 320 320 320 320 317 316 315 308 306 308 310 310 318 324 326 324 324 324 331 326 324 325 324 324 326 324 325 329 334 336 338 340 340 342 342 341 340 340 340 340 341 342 345
320 321 321 321 320 320 320 320 319 316 315 310 306 309 312 319 319 325 325 325 324 326 327 329 327 323 324 323 324 326 325 327 330 334 336 338 338 342 340 341 341 338 337 337 339 341 344
322 320 320 321 321 321 321 321 320 317 316 310 308 313 312 318 328 324 325 327 327 329 329 330 326 325 324 323 324 325 324 324 327 333 336 335 337 341 339 342 342 339 339 341 344 343 345
323 321 320 320 321 320 321 321 320 318 315 309 314 316 321 320 324 323 326 328 331 324 327 329 327 325 323 323 324 324 325 324 326 330 333 336 336 341 337 340 339 340 338 341 350 349 352
323 322 321 320 320 320 321 321 320 317 315 309 317 322 325 325 322 324 329 330 329 326 330 328 327 325 325 324 325 325 325 325 326 328 331 333 335 336 337 337 337 340 342 340 344 347 347
324 322 321 321 319 320 320 320 320 318 316 310 322 328 329 325 322 326 331 329 329 327 329 327 327 325 326 325 324 325 326 326 326 327 328 331 334 335 336 336 337 337 339 339 338 344 344
324 322 322 321 319 319 319 320 320 317 316 317 324 333 327 325 323 329 332 330 329 326 328 327 327 325 326 325 325 326 326 326 326 326 328 331 335 337 336 337 336 335 338 335 339 339 344
323 322 322 321 320 319 319 319 320 317 315 322 330 333 324 323 327 328 330 329 321 326 326 326 326 326 326 326 325 325 327 327 326 327 329 332 334 337 336 334 335 335 336 334 335 338 335
322 322 321 321 321 320 318 319 320 317 312 318 335 332 324 324 329 329 328 329 329 327 327 327 326 326 326 327 327 326 328 328 328 327 330 332 333 335 335 333 337 338 339 336 335 335 338
322 322 321 321 321 321 318 319 320 317 312 317 335 332 328 326 328 330 330 329 328 326 326 327 327 328 328 329 331 334 329 328 328 327 339 333 333 334 336 337 335 335 334 336 334 335 335
322 322 321 320 320 320 318 318 320 317 312 316 336 337 333 329 328 328 328 329 329 328 328 328 329 329 329 331 331 332 332 329 328 331 330 331 335 334 333 334 335 335 335 335 334 335 337
322 321 319 319 319 319 317 317 319 318 313 321 336 340 338 333 331 328 325 331 332 331 330 328 329 329 329 335 336 333 331 332 330 329 329 330 335 335 335 334 333 332 332 333 335 335 335
321 319 318 318 318 318 318 317 319 317 316 321 325 329 335 337 334 333 332 333 335 334 334 331 331 332 338 335 337 338 338 335 332 334 333 329 329 333 336 334 333 334 332 333 334 336 336
321 318 318 318 317 318 317 317 318 318 314 317 322 324 334 337 335 335 335 335 336 336 336 332 333 337 339 338 338 338 338 337 336 336 334 331 330 331 335 336 336 333 333 335 334 335 336
319 317 318 317 317 318 318 317 318 318 316 316 319 324 331 335 335 334 335 336 335 336 337 337 335 337 339 339 342 340 337 338 336 335 336 332 330 332 336 335 335 334 336 336 337 336 337
318 317 315 318 317 318 317 317 318 318 317 316 319 319 326 330 332 332 333 334 338 337 336 334 334 337 338 339 340 343 339 334 336 336 337 334 332 332 335 335 338 334 336 336 336 338 338
317 316 315 317 317 318 317 318 317 317 317 315 319 316 321 328 328 329 331 336 335 336 339 337 336 338 338 340 339 337 336 344 341 338 341 338 338 335 335 340 339 340 340 338 339 339 336
317 315 314 314 317 318 317 317 317 317 317 316 321 316 318 324 325 325 325 327 332 335 338 342 340 339 338 338 338 342 342 351 345 345 345 341 340 337 338 344 349 343 337 339 340 337 337
316 314 313 314 317 318 318 317 316 316 316 315 322 317 316 319 323 321 321 322 323 327 331 335 339 342 338 337 336 337 343 341 342 342 341 344 344 344 344 348 344 342 343 339 337 337 337
Wind_Speed
13 13 13 13 13 13 13 13 13 14 13 14 14 14 14 15 15 14 13 13 11 10 9 8 10 12 10 10 10 7 1 3 5 9 15 7 12 6 7 4 10 1 10 5 7 6 10
14 13 13 13 13 14 14 13 13 14 14 14 14 15 15 15 15 15 14 12 11 9 8 7 7 8 9 14 1 4 5 6 8 9 10 9 6 8 10 2 7 3 7 8 9 9 6
16 15 15 13 14 14 14 14 14 14 15 15 15 15 15 16 16 15 14 12 9 8 6 6 5 6 11 14 1 6 8 9 6 7 11 2 6 12 7 6 2 9 11 8 8 8 14
17 17 16 17 16 15 15 15 15 15 15 15 15 15 15 17 17 16 13 11 7 7 5 4 4 7 11 2 9 11 12 13 13 11 11 10 8 12 11 10 8 10 10 14 3 5 22
17 18 19 18 18 18 17 17 17 16 15 15 15 15 17 18 17 16 13 8 4 3 4 3 6 9 13 4 12 14 14 14 12 10 9 9 12 14 9 13 9 5 6 19 12 7 2
16 18 19 19 20 20 20 19 17 17 16 16 17 17 17 18 17 16 8 3 4 3 3 6 11 8 10 12 13 10 14 12 10 11 11 12 13 15 13 5 1 11 19 4 3 6 3
15 16 18 19 20 21 21 20 19 19 18 17 17 17 18 17 17 15 3 4 5 7 15 15 4 13 3 5 7 15 16 16 14 12 16 16 16 15 11 11 13 15 25 15 7 11 3
14 15 16 18 20 21 21 21 21 21 20 19 18 18 18 16 16 10 4 7 9 7 8 21 17 12 2 3 8 14 18 17 16 16 19 17 16 7 13 10 11 10 5 10 14 4 5
14 15 16 17 19 20 22 22 22 23 23 21 20 20 18 15 12 4 11 10 4 7 7 14 16 18 13 13 14 18 17 21 18 20 23 21 13 16 7 9 11 11 8 11 16 12 7
15 15 16 17 18 20 22 23 24 25 26 25 22 21 17 12 4 2 9 8 5 5 6 15 12 10 12 12 18 16 23 21 21 20 24 17 9 12 11 12 13 4 18 10 5 3 5
15 16 16 17 17 19 21 23 25 26 28 28 27 23 17 8 12 9 4 2 6 7 6 12 12 7 14 19 9 19 15 23 23 21 17 22 15 15 11 18 8 12 13 10 12 11 11
14 16 17 16 18 19 22 24 25 28 29 31 30 24 15 3 8 9 3 4 6 7 5 9 9 12 16 21 17 16 16 19 16 19 21 22 13 19 16 19 14 7 10 13 13 13 4
14 15 17 18 18 19 22 24 26 29 31 34 33 23 12 7 1 4 6 7 7 10 6 9 11 16 19 18 20 13 18 21 18 19 20 20 18 24 12 11 15 11 16 10 6 10 5
14 14 16 18 19 20 21 24 26 30 33 38 26 8 6 12 5 6 9 9 10 4 5 5 3 13 16 19 20 16 18 18 24 23 14 17 18 25 16 17 11 11 15 7 0 5 2
14 15 15 18 20 20 21 23 27 31 34 37 9 4 9 6 12 8 8 11 13 5 2 5 10 10 14 17 15 15 19 18 21 23 21 16 18 19 20 16 19 14 16 15 14 14 15
15 15 16 16 20 20 21 24 27 31 34 28 6 9 8 7 11 10 9 17 7 4 5 9 12 13 14 18 16 17 16 15 18 22 20 19 14 19 23 17 15 15 13 14 6 4 7
15 15 16 15 18 20 21 24 27 31 33 14 7 6 6 9 11 8 11 17 7 7 6 7 7 5 13 14 18 15 15 10 17 17 20 21 12 16 13 16 15 11 14 16 16 6 7
15 14 15 15 17 19 22 24 26 30 35 5 10 6 9 15 8 11 13 18 5 8 9 7 6 13 11 8 17 17 15 13 13 16 20 19 8 11 16 14 19 18 14 18 12 14 10
15 14 14 14 16 17 20 23 24 27 30 11 5 5 9 14 8 12 17 10 7 11 8 7 9 9 10 7 9 13 8 10 11 18 17 15 10 12 15 17 11 10 20 14 15 14 7
13 13 13 14 15 16 19 21 22 24 27 5 5 6 6 8 13 15 11 12 15 12 14 9 9 6 9 13 7 5 12 10 8 16 6 15 17 16 11 15 15 19 19 17 14 11 7
13 13 12 12 14 16 18 20 21 22 24 3 5 5 4 7 12 14 14 6 12 11 12 10 12 14 11 11 14 12 9 12 10 7 8 16 19 19 14 4 8 6 17 13 11 14 9
12 12 13 12 12 14 17 20 21 21 21 6 6 4 4 11 2 9 6 11 13 11 12 13 13 15 15 13 13 12 14 10 15 15 14 17 18 17 20 12 11 10 10 11 11 12 11
13 12 13 11 11 12 15 18 19 20 15 7 8 8 5 7 13 10 11 13 9 7 11 14 10 14 7 13 12 12 14 11 13 13 17 20 16 16 19 17 11 15 15 13 10 8 6
13 13 13 12 11 11 12 15 16 16 16 9 7 9 6 12 9 8 8 2 9 8 12 11 12 9 4 5 8 13 14 13 13 12 13 18 19 18 15 14 20 13 15 8 10 5 4
13 12 12 12 10 10 11 13 14 13 14 9 7 6 5 10 11 5 7 10 11 10 12 15 8 8 3 8 11 12 11 14 17 16 16 16 15 14 14 15 13 19 6 11 13 7 12
14 12 13 12 10 10 10 11 11 11 12 9 5 6 6 6 5 9 7 10 10 10 14 14 15 3 7 9 12 14 12 11 15 10 15 17 16 15 12 14 17 14 17 10 4 9 11
15 13 12 12 11 9 8 9 8 10 11 10 6 4 6 8 12 4 7 8 3 7 10 10 13 11 11 9 12 11 14 14 7 20 16 14 12 15 15 3 16 13 7 13 9 4 9
16 14 13 12 12 10 9 8 9 10 11 10 5 3 6 6 13 14 13 11 7 6 10 10 3 9 8 12 14 4 6 7 19 9 2 12 13 13 16 12 6 15 9 10 9 10 9
16 14 12 12 12 11 10 8 8 9 10 9 7 2 6 5 9 19 19 18 15 12 8 5 9 11 3 6 10 4 5 3 3 5 2 2 8 4 3 7 9 13 25 8 12 10 8
Wind_Direction
12 10 6 2 1 359 356 353 350 345 344 344 342 340 339 338 331 326 320 310 300 298 300 311 316 321 322 231 249 150 269 288 227 238 247 285 278 270 259 116 162 34 101 95 110 123 97
13 12 7 3 360 357 356 352 348 342 340 339 339 338 337 335 332 326 319 309 297 289 291 302 311 314 258 259 83 190 250 260 244 243 257 256 341 338 303 232 118 101 102 137 159 129 131
15 12 12 5 1 357 355 352 346 342 339 338 338 337 332 331 328 324 320 308 289 278 279 290 301 309 266 250 267 232 243 247 261 267 284 287 315 279 277 206 136 144 174 170 150 161 93
16 19 16 16 11 4 358 355 350 346 342 340 339 335 332 329 327 327 325 305 284 275 272 272 270 266 271 330 252 245 240 247 239 246 256 282 286 273 273 173 216 221 231 51 154 169 120
20 21 21 20 14 7 2 356 352 350 348 345 339 338 333 330 328 328 323 305 288 266 245 232 251 234 266 159 224 222 225 236 220 229 240 272 265 256 199 233 237 159 40 272 149 156 131
19 21 19 19 19 16 12 5 356 352 347 341 340 334 332 330 329 329 321 292 253 188 222 242 261 264 243 226 190 209 211 232 239 224 218 231 236 233 230 265 119 269 174 272 130 163 176
15 17 18 20 17 13 10 7 6 359 350 343 336 330 330 327 328 323 288 254 212 202 210 234 231 230 133 207 215 223 208 207 229 238 222 207 240 231 51 72 221 223 256 194 179 109 240
7 10 12 14 12 11 7 6 3 358 351 344 337 331 328 329 322 307 240 250 33 340 280 219 248 238 236 254 225 219 195 205 208 218 222 225 239 321 177 209 278 242 258 28 1 96 252
2 2 4 6 6 5 5 2 358 354 351 345 339 334 326 331 318 254 232 256 308 323 259 219 211 227 217 212 238 197 199 211 207 216 230 227 214 169 216 235 247 242 113 108 249 241 225
355 355 356 358 358 358 358 357 355 352 349 347 341 334 326 333 290 275 236 219 248 296 268 168 198 224 202 206 225 248 192 217 229 225 230 234 174 243 220 256 265 36 309 283 252 261 121
353 351 348 350 351 352 352 351 351 350 348 344 339 330 321 307 307 239 41 214 272 222 258 144 133 110 190 204 119 196 215 220 226 222 233 228 186 231 221 242 311 151 215 286 301 276 155
342 346 345 341 344 345 346 346 347 347 345 341 335 324 319 285 230 249 256 275 222 230 245 153 151 189 193 204 222 161 198 229 226 234 230 253 227 201 244 232 192 317 266 247 249 244 256
324 336 341 341 338 339 340 343 343 344 342 339 330 312 280 259 250 207 229 219 219 245 98 154 185 172 195 191 214 176 195 201 214 221 220 220 238 269 204 220 257 244 257 260 286 243 345
319 325 334 335 335 333 336 340 341 342 342 337 326 287 268 211 246 229 223 223 253 219 189 84 216 184 200 185 212 195 197 201 217 219 222 218 214 223 211 246 234 254 269 279 157 322 202
315 319 323 329 332 332 334 338 340 341 342 338 322 250 220 241 207 213 227 226 226 239 31 241 173 207 201 185 210 202 209 213 205 224 227 224 227 212 219 200 243 227 251 252 174 247 253
312 314 318 324 329 333 338 340 341 341 342 336 293 217 158 176 180 212 235 253 307 325 336 237 226 209 190 197 201 198 196 221 225 208 237 238 237 223 206 223 232 245 244 292 242 241 314
306 310 314 320 329 333 339 342 342 341 343 328 245 224 123 168 177 223 231 235 225 189 230 261 259 203 253 190 200 201 228 211 224 195 227 251 245 204 191 205 218 211 235 259 221 193 254
301 306 310 315 323 329 335 340 343 345 346 329 279 239 147 163 199 221 231 254 57 262 195 257 290 295 256 196 196 236 208 234 192 220 207 233 226 229 202 208 220 238 254 239 243 228 264
297 299 307 311 318 324 331 337 344 347 351 319 257 113 164 201 227 221 226 261 238 245 226 232 235 242 244 248 208 229 224 212 185 227 200 219 245 230 191 200 207 217 232 253 268 278 230
293 295 304 310 317 323 331 336 343 347 346 318 272 196 152 210 263 289 247 210 234 212 261 263 265 262 223 250 219 225 231 177 180 211 220 216 238 253 191 205 202 203 233 269 251 267 280
287 295 300 309 318 323 330 335 343 346 340 294 243 296 47 191 224 235 263 250 228 232 203 219 235 247 234 232 222 214 238 198 184 191 210 225 239 250 263 66 215 184 262 226 237 281 296
282 291 301 300 310 321 328 334 343 348 339 252 306 339 348 278 296 230 193 244 249 246 243 207 235 216 234 253 259 211 215 221 195 201 212 219 242 240 255 217 218 248 253 244 223 250 287
277 288 291 292 299 312 324 332 345 353 356 310 6 275 272 277 255 213 232 211 260 256 269 246 238 248 237 247 279 314 313 281 209 194 205 226 228 232 243 231 228 228 249 246 238 238 276
273 282 283 279 289 303 319 329 341 355 5 314 339 298 272 264 225 242 263 269 273 238 251 229 229 257 31 360 276 257 254 242 250 250 233 213 220 222 231 220 227 243 232 356 260 220 270
267 283 289 263 275 290 309 322 332 346 354 328 322 308 295 277 289 301 263 260 259 240 228 262 252 254 350 271 257 235 219 223 226 221 239 224 221 229 214 229 241 236 193 230 217 271 255
259 281 307 245 262 278 299 313 324 340 349 334 309 307 281 295 274 356 309 287 279 258 207 210 248 250 260 256 238 238 234 204 208 198 227 239 220 223 231 245 261 236 213 185 225 240 131
252 267 289 254 249 265 283 302 325 342 345 338 300 315 277 278 275 316 282 336 339 297 282 200 210 204 228 253 258 222 233 340 201 198 177 215 237 219 238 338 257 84 353 213 219 109 114
247 261 274 266 237 251 264 281 306 328 340 339 306 299 307 292 296 287 278 281 277 246 282 354 203 243 217 229 249 239 295 125 283 49 225 189 199 227 236 203 290 340 169 227 100 126 125
242 254 267 255 228 240 254 268 292 310 326 329 276 279 291 263 290 307 279 265 262 273 313 302 319 294 281 266 252 256 191 259 248 187 151 283 1 355 346 29 175 164 259 126 143 121 132